Location: Austin
(30.3000°N, 97.7500°W)
Time: 20:37:15
(UTC-06:00)

USA 215 - Pass Details

Date: 31 October 2024
Orbit: 1099 x 1108 km, 123.0° (Epoch: 27 October)

Event Time Altitude Azimuth Distance (km) Brightness Sun altitude
Rises 04:37:41 0° 45° (NE) 3,914 6.7 -40.8°
Reaches altitude 10° 04:40:13 10° 49° (NE) 2,954 6.0 -40.3°
Enters shadow 04:44:45 44° 73° (ENE) 1,468 4.1 -39.3°
